Location: Mahannah Oil Field
(37.4664°N, 96.6003°W)
Time: 16:57:11
(UTC+00:00)

Transit 2A Rocket - Visible Passes

Search period start: 20 June 2021 00:00
Search period end: 30 June 2021 00:00
Orbit: 592 x 910 km, 66.7° (Epoch: 19 June)

Date Brightness Start Highest point End Pass type
(mag) Time Alt. Az. Time Alt. Az. Time Alt. Az.
20 Jun 5.8 06:37:32 39° NNE 06:37:32 39° NNE 06:40:19 10° NNE visible
21 Jun 6.4 05:55:41 23° NE 05:55:41 23° NE 05:57:34 10° NE visible
21 Jun 6.7 07:35:32 16° WNW 07:36:11 17° NW 07:39:02 10° N visible
22 Jun 7.0 05:13:46 13° ENE 05:13:46 13° ENE 05:14:23 10° ENE visible
22 Jun 6.1 06:53:38 28° NW 06:53:38 28° NW 06:57:10 10° N visible
23 Jun 5.6 06:11:41 42° N 06:11:41 42° N 06:14:54 10° NNE visible
24 Jun 5.7 05:29:40 35° NE 05:29:40 35° NE 05:32:19 10° NNE visible
24 Jun 7.2 07:09:31 10° WNW 07:11:04 12° NW 07:12:39 10° NNW visible
25 Jun 6.2 04:47:35 22° ENE 04:47:35 22° ENE 04:49:26 10° NE visible
25 Jun 6.6 06:27:26 19° WNW 06:28:04 20° NW 06:31:23 10° N visible
26 Jun 6.8 04:05:24 12° ENE 04:05:24 12° ENE 04:05:59 10° ENE visible
26 Jun 5.8 05:45:15 36° NW 05:45:15 36° NW 05:49:20 10° NNE visible
27 Jun 4.8 05:02:57 66° NNW 05:02:57 66° NNW 05:06:57 10° NNE visible
28 Jun 4.7 04:20:30 52° E 04:20:30 52° E 04:24:17 10° NE visible
28 Jun 7.3 06:00:32 10° W 06:02:55 14° NW 06:05:21 10° NNW visible
29 Jun 5.5 03:37:51 27° ESE 03:37:51 27° ESE 03:41:14 10° NE visible
29 Jun 6.6 05:17:40 16° W 05:19:59 25° NW 05:23:39 10° N visible
